Regional Weather Roundup
Issued by NWS

Home | Current Version | Previous Version | Text Only | Print | Product List | Glossary Off
Versions: 1 2 3 4 5 6 7 8 9 10 11 12 13 14 15 16 17 18 19 20 21 22 23 24 25 26 27 28 29 30 31 32 33 34 35 36 37 38 39 40 41 42 43 44 45 46 47 48 49 50

000
ASUS45 KABQ 250010
RWRNM
WEATHER ROUNDUP FOR NEW MEXICO
NATIONAL WEATHER SERVICE ALBUQUERQUE NM
500 PM MST WED DEC 24 2014

NOTE: "FAIR" MEANS FEW OR NO CLOUDS BELOW 12,000 FEET AGL WITH NO
       SIGNIFICANT WEATHER OR OBSTRUCTIONS TO VISION.

      THIS PRODUCT IS RELEASED AS TWO VERSIONS.  ONE VERSION NEAR
      THE TOP OF THE HOUR CONTAINING PRELIMINARY DATA FROM ALBUQUERQUE
      AND OTHER STATIONS.  A FINAL VERSION WITH ADDITIONAL DATA IS
      ISSUED ABOUT 10 MINUTES AFTER THE HOUR.

NMZ501-503-504-510>518-250100-
NORTHWEST PLATEAU/NORTHCENTRAL MOUNTAINS

CITY           SKY/WX    TMP DP  RH WIND       PRES   REMARKS
FARMINGTON     CLEAR     34  10  37 S3        29.97F
6HR MIN TEMP:  28; 6HR MAX TEMP:  38;

LOS ALAMOS     CLEAR     30  10  44 S3        29.98R
SANTA FE       CLEAR     29  11  47 W6        29.96S WCI  23
6HR MIN TEMP:  29; 6HR MAX TEMP:  36;

TAOS           PTCLDY    28   5  37 SW5       29.95S WCI  23
ANGEL FIRE     FAIR      26   3  38 S3        29.91S

$$
NMZ402-403-502-505>509-250100-
WESTCENTRAL MOUNTAINS/SOUTHWEST MOUNTAINS

CITY           SKY/WX    TMP DP  RH WIND       PRES   REMARKS
GALLUP         MOCLDY    39  15  37 SW8       29.98F WCI  33
6HR MIN TEMP:  33; 6HR MAX TEMP:  45; 6HR PCP: TRACE;

GRANTS         PTCLDY    33   8  34 CALM      30.00S
SILVER CITY    CLEAR     43   5  21 S8        30.06S

$$
NMZ407-409-411-412-250100-
SOUTHERN DESERTS

CITY           SKY/WX    TMP DP  RH WIND       PRES   REMARKS
LORDSBURG      FAIR      45  10  24 CALM      30.04S
DEMING         CLEAR     47   6  18 S6        30.04F
6HR MIN TEMP:  41; 6HR MAX TEMP:  50;

LAS CRUCES     CLEAR     45   4  18 W7        30.05F
HOLLOMAN AFB   PTCLDY    45  10  24 E1        30.03F
ALAMOGORDO     CLEAR     45   7  21 NW3       30.05F
T OR C         CLEAR     45   5  19 S8        30.01F
6HR MIN TEMP:  39; 6HR MAX TEMP:  47;


$$
NMZ519>523-250100-
CENTRAL VALLEYS/CENTRAL HIGHLANDS

CITY           SKY/WX    TMP DP  RH WIND       PRES   REMARKS
ALBUQUERQUE    PTCLDY    39   9  29 SE3       30.00S
6HR MIN TEMP:  32; 6HR MAX TEMP:  42;

DOUBLE EAGLE   PTCLDY    34   9  35 SE6       30.00S WCI  29
MORIARTY ARPT  FAIR      35  11  37 NW3       29.96S
6HR MIN TEMP:  32; 6HR MAX TEMP:  41;

CLINES CORNERS CLEAR     30  11  45 NW18      29.90S WCI  18
6HR MIN TEMP:  30; 6HR MAX TEMP:  37;

BELEN          FAIR      38   8  29 SE3       30.00S
6HR MIN TEMP:  35; 6HR MAX TEMP:  43;

SOCORRO        FAIR      42   6  22 E7        30.00F
6HR MIN TEMP:  36; 6HR MAX TEMP:  47;


$$
NMZ524>526-539-540-250100-
SOUTHCENTRAL MOUNTAINS

CITY           SKY/WX    TMP DP  RH WIND       PRES   REMARKS
RUIDOSO        CLEAR     34   7  32 SW5       30.00S WCI  30

$$
NMZ527>531-250100-
NORTHEAST HIGHLANDS/NORTHEAST PLAINS

CITY           SKY/WX    TMP DP  RH WIND       PRES   REMARKS
LAS VEGAS      CLEAR     35  12  38 S10       29.83F WCI  27
6HR MIN TEMP:  35; 6HR MAX TEMP:  46;

RATON          PTCLDY    24  11  57 N7        29.80F WCI  16
6HR MIN TEMP:  22; 6HR MAX TEMP:  35;

CLAYTON        CLEAR     35  18  49 SW14      29.79F WCI  26
6HR MIN TEMP:  35; 6HR MAX TEMP:  44;


$$
NMZ532>537-250100-
EASTCENTRAL PLAINS

CITY           SKY/WX    TMP DP  RH WIND       PRES   REMARKS
TUCUMCARI      CLEAR     43  16  33 S9        29.83F
6HR MIN TEMP:  39; 6HR MAX TEMP:  50;

CANNON AFB     CLEAR     39  16  39 SW9       29.90F WCI  33
6HR MIN TEMP:  38; 6HR MAX TEMP:  46;

CLOVIS AIRPORT CLEAR     39  16  38 SW12      29.89F WCI  32

$$
NMZ028-029-538-250100-
SOUTHEAST PLAINS

CITY           SKY/WX    TMP DP  RH WIND       PRES   REMARKS
ROSWELL        CLEAR     47  17  30 SE8       29.93F
6HR MIN TEMP:  45; 6HR MAX TEMP:  53;

ARTESIA        CLEAR     46  18  31 SW12      29.95F
CARLSBAD       CLEAR     48  20  32 CALM      29.96F
6HR MIN TEMP:  45; 6HR MAX TEMP:  55;

HOBBS          CLEAR     45  21  39 S9        29.98F


$$


USA.gov is the U.S. government's official web portal to all federal, state and local government web resources and services.